Weather reports worldwide

Advertisment
Leconfield, United Kingdom (3382): temperature & dewpoint: 29.03.2020 00:00:00 - 04.04.2020 00:00:00 (BST)Leconfield, United Kingdom (3382): temperature -20cm & temperature -100cm: 29.03.2020 00:00:00 - 04.04.2020 00:00:00 (BST)Leconfield, United Kingdom (3382): wind speed & gusts: 29.03.2020 00:00:00 - 04.04.2020 00:00:00 (BST)Leconfield, United Kingdom (3382): wind direction: 29.03.2020 00:00:00 - 04.04.2020 00:00:00 (BST)Leconfield, United Kingdom (3382): reduced air pressure: 29.03.2020 00:00:00 - 04.04.2020 00:00:00 (BST)Leconfield, United Kingdom (3382): visibility: 29.03.2020 00:00:00 - 04.04.2020 00:00:00 (BST)Leconfield, United Kingdom (3382): sunshine duration: 29.03.2020 00:00:00 - 04.04.2020 00:00:00 (BST)Leconfield, United Kingdom (3382): precipitation: 29.03.2020 00:00:00 - 04.04.2020 00:00:00 (BST)
Date & Time tt [°C] td [°C] tt -20cm [°C] tt -100cm [°C] ff [km/h] ff [kn] fx [km/h] fx [kn] dd ppp [hPa] vv [km] sd [min] rr [mm]
04.04.2020 00:00:00 4,2 1,4 - - 5 3 - - S 1017,3 10 0 0,0
03.04.2020 23:00:00 4,9 1,7 - - 8 4 - - SW 1017,0 30 0 0,0
03.04.2020 22:00:00 5,6 2,0 - - 5 3 - - SW 1016,8 10 0 0,0
03.04.2020 21:00:00 6,2 1,8 - - 9 5 - - SW 1016,7 10 0 0,0
03.04.2020 20:00:00 8,5 2,3 - - 9 5 - - W 1016,4 10 6 0,0
03.04.2020 19:00:00 10,0 2,7 - - 11 6 - - W 1016,1 10 0 0,0
03.04.2020 18:00:00 10,0 2,8 - - 15 8 - - W 1015,9 27 0 0,0
03.04.2020 17:00:00 10,5 2,5 - - 21 11 - - W 1015,6 30 12 0,0
03.04.2020 16:00:00 10,5 2,0 - - 21 11 - - W 1015,4 35 0 0,0
03.04.2020 15:00:00 9,7 1,7 - - 16 9 - - W 1015,5 10 6 0,0
03.04.2020 14:00:00 9,9 2,8 - - 16 9 - - W 1015,5 27 6 0,0
03.04.2020 13:00:00 8,7 1,9 - - 18 10 - - W 1015,7 10 0 0,0
03.04.2020 12:00:00 8,2 2,3 - - 22 12 - - W 1015,7 21 0 0,0
03.04.2020 11:00:00 7,7 2,3 - - 16 9 - - W 1015,6 29 0 0,0
03.04.2020 10:00:00 6,4 2,4 7,0 7,5 16 9 - - WSW 1015,2 10 0 0,0
03.04.2020 09:00:00 5,7 2,3 - - 13 7 - - W 1014,8 19 0 0,0
03.04.2020 08:00:00 5,2 1,7 - - 13 7 - - W 1014,5 17 18 0,0
03.04.2020 07:00:00 4,4 1,3 - - 13 7 - - W 1014,1 10 0 0,0
03.04.2020 06:00:00 4,3 1,3 - - 11 6 - - W 1013,9 16 0 0,0
03.04.2020 05:00:00 4,1 0,5 - - 8 4 - - WSW 1013,5 20 0 0,0
03.04.2020 04:00:00 4,3 -1,4 - - 5 3 - - WNW 1013,3 40 0 0,0
03.04.2020 03:00:00 5,4 -0,7 - - 13 7 - - WNW 1013,2 30 0 0,0
03.04.2020 02:00:00 6,3 -0,1 - - 16 9 - - WNW 1013,1 35 0 0,0
03.04.2020 01:00:00 6,2 0,3 - - 16 9 - - WNW 1012,8 10 - 0,0
03.04.2020 00:00:00 6,1 0,1 - - 15 8 - - WNW 1012,6 10 0 0,0
02.04.2020 23:00:00 6,9 0,2 - - 21 11 - - WNW 1012,3 10 0 0,0
02.04.2020 22:00:00 8,5 0,8 - - 21 11 - - WNW 1012,1 10 0 0,0
02.04.2020 21:00:00 8,6 1,1 - - 9 5 - - WNW 1011,4 21 0 0,0
02.04.2020 20:00:00 9,4 1,2 - - 21 11 - - WNW 1010,7 24 0 0,0
02.04.2020 19:00:00 10,5 1,2 - - 18 10 - - WNW 1010,3 45 12 0,0
02.04.2020 18:00:00 11,2 3,5 - - 21 11 46 25 WNW 1009,9 10 6 0,0
02.04.2020 17:00:00 11,9 4,2 - - 24 13 - - W 1009,5 10 6 0,0
02.04.2020 16:00:00 12,2 4,0 - - 28 15 48 26 WNW 1009,2 10 12 0,0
02.04.2020 15:00:00 13,3 4,6 - - 31 17 54 29 W 1008,9 35 24 0,0
02.04.2020 14:00:00 12,2 6,4 - - 31 17 50 27 W 1008,9 10 18 0,0
02.04.2020 13:00:00 11,8 6,7 - - 29 16 55 30 W 1009,4 10 24 0,0
02.04.2020 12:00:00 11,7 6,8 - - 35 19 50 27 W 1009,3 30 6 0,0
02.04.2020 11:00:00 10,2 5,8 - - 24 13 - - W 1010,2 29 0 0,0
02.04.2020 10:00:00 10,1 5,0 7,0 7,4 28 15 - - W 1010,4 10 48 0,0
02.04.2020 09:00:00 8,6 4,3 - - 22 12 - - WSW 1011,0 35 42 0,0
02.04.2020 08:00:00 6,8 3,5 - - 18 10 - - WSW 1011,8 10 36 0,0
02.04.2020 07:00:00 5,7 3,0 - - 15 8 - - W 1012,4 10 0 0,0
02.04.2020 06:00:00 5,5 4,2 - - 13 7 - - WSW 1012,9 23 0 0,0
02.04.2020 05:00:00 5,2 3,8 - - 11 6 - - SW 1013,6 17 0 0,0
02.04.2020 04:00:00 6,6 4,8 - - 16 9 - - W 1014,5 35 0 0,0
02.04.2020 03:00:00 5,4 3,7 - - 13 7 - - W 1015,4 18 0 0,0
02.04.2020 02:00:00 6,1 4,0 - - 15 8 - - W 1016,1 10 0 0,0
02.04.2020 01:00:00 5,3 3,3 - - 13 7 - - W 1016,5 10 - 0,0
02.04.2020 00:00:00 5,8 3,6 - - 13 7 - - WSW 1017,0 21 0 0,0
01.04.2020 23:00:00 6,9 3,8 - - 15 8 - - W 1017,4 10 0 0,0
01.04.2020 22:00:00 7,2 3,6 - - 13 7 - - W 1017,7 10 0 0,0
01.04.2020 21:00:00 7,3 3,5 - - 15 8 - - W 1018,0 10 0 0,0
01.04.2020 20:00:00 7,3 3,2 - - 11 6 - - W 1017,9 10 6 0,0
01.04.2020 19:00:00 9,1 2,6 - - 9 5 - - W 1018,3 10 0 0,0
01.04.2020 18:00:00 9,8 1,8 - - 15 8 - - WNW 1018,6 50 0 0,0
01.04.2020 17:00:00 9,8 1,1 - - 16 9 - - NW 1019,0 10 0 0,0
01.04.2020 16:00:00 9,8 1,1 - - 18 10 - - WNW 1019,6 10 6 0,0
01.04.2020 15:00:00 9,8 -0,4 - - 16 9 - - WNW 1020,1 50 6 0,0
01.04.2020 14:00:00 10,2 0,4 - - 16 9 - - WNW 1020,9 30 6 0,0
01.04.2020 13:00:00 9,1 2,4 - - 15 8 - - WNW 1021,6 35 0 0,0
01.04.2020 12:00:00 8,4 3,2 - - 13 7 - - W 1022,1 50 0 0,0
01.04.2020 11:00:00 7,4 3,6 - - 13 7 - - W 1022,6 10 0 0,0
01.04.2020 10:00:00 6,7 3,7 6,9 7,2 11 6 - - W 1023,1 10 0 0,0
01.04.2020 09:00:00 6,5 3,7 - - 15 8 - - W 1023,1 10 0 0,0
01.04.2020 08:00:00 5,7 3,7 - - 9 5 - - W 1023,5 19 0 0,0
01.04.2020 07:00:00 5,0 2,9 - - 5 3 - - WSW 1023,9 16 0 0,0
01.04.2020 06:00:00 5,0 2,6 - - 4 2 - - WSW 1024,5 10 0 0,0
01.04.2020 05:00:00 5,3 2,3 - - 5 3 - - WSW 1025,1 25 0 0,0
01.04.2020 04:00:00 5,6 1,9 - - 2 1 - - W 1025,7 10 0 0,0
01.04.2020 03:00:00 5,7 1,8 - - 2 1 - - SSW 1026,6 35 0 0,0
01.04.2020 02:00:00 5,4 2,3 - - 4 2 - - E 1027,4 45 0 0,0
01.04.2020 01:00:00 5,8 1,9 - - 9 5 - - WSW 1027,9 10 - 0,0
01.04.2020 00:00:00 6,0 2,3 - - 8 4 - - WSW 1028,8 45 0 0,0
31.03.2020 23:00:00 6,0 2,8 - - 9 5 - - WSW 1029,5 10 0 0,0
31.03.2020 22:00:00 6,0 3,1 - - 5 3 - - SW 1030,0 10 0 0,0
31.03.2020 21:00:00 5,9 3,3 - - 2 1 - - S 1030,8 10 0 0,0
31.03.2020 20:00:00 6,5 3,0 - - 0 0 - - N 1031,1 50 0 0,0
31.03.2020 19:00:00 7,0 2,5 - - 0 0 - - N 1031,4 40 0 0,0
31.03.2020 18:00:00 7,4 2,3 - - 4 2 - - E 1031,8 50 0 0,0
31.03.2020 17:00:00 7,8 2,5 - - 9 5 - - E 1032,3 45 0 -
31.03.2020 16:00:00 8,0 2,9 - - 8 4 - - E 1032,7 30 6 0,0
31.03.2020 15:00:00 8,9 3,5 - - 8 4 - - ENE 1033,1 26 6 0,0
31.03.2020 14:00:00 8,1 3,0 - - 9 5 - - NNE 1033,8 35 0 0,0
31.03.2020 13:00:00 7,5 2,6 - - 11 6 - - ENE 1034,5 10 0 0,0
31.03.2020 12:00:00 7,7 3,2 - - 11 6 - - NE 1034,7 10 0 0,0
31.03.2020 11:00:00 7,2 2,5 - - 18 10 - - ENE 1035,0 10 0 0,0
31.03.2020 10:00:00 6,7 3,5 6,4 7,2 11 6 - - NE 1035,3 24 6 0,0
31.03.2020 09:00:00 6,1 4,8 - - 9 5 - - NNE 1035,3 10 30 0,0
31.03.2020 08:00:00 4,6 3,6 - - 5 3 - - N 1035,1 17 24 0,0
31.03.2020 07:00:00 3,6 2,9 - - 9 5 - - N 1035,1 19 0 0,2
31.03.2020 06:00:00 3,3 2,6 - - 8 4 - - N 1034,7 23 0 0,0
31.03.2020 05:00:00 4,1 3,3 - - 11 6 - - NE 1034,6 10 0 0,2
31.03.2020 04:00:00 4,0 3,0 - - 8 4 - - NNW 1034,4 10 0 0,0
31.03.2020 03:00:00 4,2 3,0 - - 8 4 - - N 1034,7 10 0 0,2
31.03.2020 02:00:00 4,5 2,8 - - 11 6 - - NNE 1034,5 10 0 0,0
31.03.2020 01:00:00 4,9 3,5 - - 9 5 - - NNE 1034,5 10 - 0,0
31.03.2020 00:00:00 5,2 4,1 - - 16 9 - - NE 1034,5 7 0 0,2
30.03.2020 23:00:00 5,6 4,2 - - 11 6 - - N 1034,5 10 0 0,0
30.03.2020 22:00:00 5,2 3,8 - - 11 6 - - NNE 1034,7 10 0 0,0
30.03.2020 21:00:00 5,6 4,1 - - 15 8 - - N 1034,5 28 0 0,2
30.03.2020 20:00:00 5,5 4,5 - - 16 9 - - NNE 1034,3 17 0 0,6
30.03.2020 19:00:00 7,4 4,1 - - 24 13 46 25 NNE 1034,0 13 0 0,0
30.03.2020 18:00:00 7,8 4,2 - - 22 12 48 26 N 1034,0 10 0 0,0
30.03.2020 17:00:00 8,3 4,0 - - 28 15 46 25 NNE 1034,1 14 6 0,0
30.03.2020 16:00:00 9,0 4,0 - - 29 16 48 26 NNE 1034,3 10 36 0,0
30.03.2020 15:00:00 9,1 3,9 - - 29 16 48 26 N 1034,7 10 54 0,0
30.03.2020 14:00:00 10,1 3,2 - - 31 17 46 25 NNE 1034,9 10 60 0,0
30.03.2020 13:00:00 9,5 3,8 - - 28 15 46 25 NNE 1035,3 23 42 0,0
30.03.2020 12:00:00 8,6 3,4 - - 26 14 - - NNE 1035,7 10 36 0,0
30.03.2020 11:00:00 7,1 5,0 - - 21 11 - - N 1036,0 11 18 0,0
30.03.2020 10:00:00 7,0 4,6 6,0 7,2 16 9 - - N 1036,2 13 6 0,0
30.03.2020 09:00:00 5,6 4,4 - - 18 10 - - N 1036,4 10 0 0,2
30.03.2020 08:00:00 4,8 4,2 - - 11 6 - - NW 1036,3 10 0 0,4
30.03.2020 07:00:00 4,1 3,1 - - 13 7 - - NW 1036,3 12 0 0,2
30.03.2020 06:00:00 4,3 2,0 - - 15 8 - - NNW 1036,7 10 0 0,0
30.03.2020 05:00:00 4,5 1,0 - - 15 8 - - NW 1037,1 10 0 0,2
30.03.2020 04:00:00 3,7 1,0 - - 13 7 - - NW 1037,7 16 0 0,0
30.03.2020 03:00:00 3,5 -0,9 - - 13 7 - - NW 1038,5 10 0 0,0
30.03.2020 02:00:00 1,6 -1,7 - - 8 4 - - WSW 1039,4 29 0 0,0
30.03.2020 01:00:00 3,1 -1,8 - - 8 4 - - WNW 1040,2 10 - 0,0
30.03.2020 00:00:00 3,1 -0,8 - - 9 5 - - NW 1041,0 10 0 0,0
29.03.2020 23:00:00 2,9 -1,1 - - 8 4 - - WNW 1041,5 10 0 0,0
29.03.2020 22:00:00 2,3 -1,4 - - 9 5 - - WNW 1042,2 10 0 0,0
29.03.2020 21:00:00 2,2 -1,5 - - 8 4 - - NNW 1042,7 28 0 0,0
29.03.2020 20:00:00 3,5 -1,3 - - 13 7 - - N 1042,6 26 0 0,0
29.03.2020 19:00:00 4,6 -0,6 - - 18 10 - - N 1042,8 35 0 0,0
29.03.2020 18:00:00 4,5 0,2 - - 18 10 - - N 1042,9 30 0 0,0
29.03.2020 17:00:00 3,3 1,2 - - 26 14 48 26 NNE 1043,4 10 0 0,2
29.03.2020 16:00:00 5,5 -0,3 - - 24 13 - - N 1043,3 16 6 0,0
29.03.2020 15:00:00 6,5 -1,4 - - 24 13 48 26 NNE 1043,1 27 6 0,0
29.03.2020 14:00:00 6,2 -1,0 - - 28 15 48 26 NNE 1043,1 10 0 0,0
29.03.2020 13:00:00 5,5 -0,9 - - 29 16 52 28 NNE 1043,3 10 12 0,0
29.03.2020 12:00:00 6,1 0,6 - - 24 13 50 27 NNE 1042,9 28 18 0,0
29.03.2020 11:00:00 6,0 -2,8 - - 34 18 52 28 NNE 1042,5 35 24 0,0
29.03.2020 10:00:00 5,3 -2,1 6,2 7,4 29 16 52 28 NNE 1042,5 27 0 0,0
29.03.2020 09:00:00 4,4 -0,5 - - 29 16 - - NNE 1041,8 15 6 0,0
29.03.2020 08:00:00 3,4 -1,6 - - 26 14 54 29 NNE 1041,0 20 0 0,0
29.03.2020 07:00:00 3,2 -0,8 - - 31 17 54 29 NNE 1040,6 16 0 0,0
29.03.2020 06:00:00 3,2 -0,8 - - 26 14 57 31 NNE 1040,2 10 0 0,0
29.03.2020 05:00:00 3,8 -2,3 - - 26 14 52 28 NNE 1039,8 24 0 0,0
29.03.2020 04:00:00 3,8 -0,9 - - 21 11 46 25 NNE 1039,9 15 0 0,2
29.03.2020 03:00:00 3,4 -0,8 - - 21 11 50 27 NNE 1039,6 17 0 0,0
29.03.2020 02:00:00 3,8 -1,6 - - 28 15 50 27 NNE 1039,3 10 0 0,0
29.03.2020 01:00:00 4,4 -2,3 - - 26 14 - - NNE 1039,1 10 - 0,0
29.03.2020 00:00:00 - - - - - - - - - - - - -

tt = temperature
td = dewpoint
tt -20cm = temperature -20cm
tt -100cm = temperature -100cm
ff = wind speed
fx = gusts
dd = wind direction
ppp = reduced air pressure
vv = visibility
sd = sunshine duration
rr = precipitation

Next stations